Onweer radar Meer informatie blitzortung!


Regen radar Meer informatie rain snow radar


Bezoek onze andere website:

Template documentation
and downloads

And another site



15 daagse weersverwachting Thun (CH)

  • Overzicht
  • Per uur
  • 15 dagen
  • Extra
  • Vergelijk
  • Kaarten
  • Dagkaart
  • Meer »
  • Info
  • Statistieken
  • Directe link
    Temp 6h Neerslag Wind  
 06:12     21:01    Daglengte: 14:49 Vandaag
02:00
14°
7.7 mm
2
08:00
13°
39.1 mm
1
14:00
16°
37.9 mm
1
warningclass
20:00
14°
28.4 mm
2
 06:13     20:59    Daglengte: 14:46 Morgen
02:00
11°
 
1
08:00
12°
 
1
14:00
18°
 
2
20:00
17°
16.6 mm
1
 06:14     20:58    Daglengte: 14:44 Dinsdag 03 Aug
02:00
12°
16.5 mm
2
08:00
14°
 
1
14:00
18°
60.7 mm
4
20:00
17°
86.3 mm
1
Locatie info
Region: Thun
Latitude: 46.7570°N
Longitude: 7.6303°E
565 masl
Postcode: 3600
Temp/Neerslag /Baro Onweer/Dauwpunt
    Temp Baro 1h Neerslag Dauwpunt Wind UV Bewolking  
 06:12     21:01    Daglengte: 14:49 Vandaag
01:00
15°
1010.6 hPa 3.0 mm
82%
12.2°
2
Windvlaag: -1.4 m/s
86%
02:00
14°
1010.7 hPa 4.7 mm
82%
12.3°
2
Windvlaag: -0.3 m/s
86%
03:00
14°
1010.5 hPa 6.2 mm
82%
12.2°
2
Windvlaag: -0.3 m/s
86%
04:00
14°
1010.6 hPa 5.8 mm
82%
11.9°
2
Windvlaag: -0.9 m/s
86%
05:00
14°
1010.5 hPa 6.6 mm
82%
12.4°
2
Windvlaag: -2 m/s
86%
06:00
14°
1011.0 hPa 7.1 mm
82%
12.4°
2
Windvlaag: -2.5 m/s
86%
07:00
13°
1011.3 hPa 7.0 mm
82%
12.6°
2
Windvlaag: -2.4 m/s
86%
08:00
13°
1011.8 hPa 6.5 mm
82%
12.7°
1
Windvlaag: -2.1 m/s
81%
09:00
13°
1012.3 hPa 6.3 mm
82%
12.7°
1
Windvlaag: -2.3 m/s
82%
10:00
14°
1012.7 hPa 6.7 mm
82%
12.6°
1
Windvlaag: -2.1 m/s
84%
11:00
14°
1012.9 hPa 6.5 mm
82%
12.4°
1
Windvlaag: -1.7 m/s
71%
12:00
15°
1012.8 hPa 6.2 mm
82%
12.4°
1
Windvlaag: -1.6 m/s
58%
13:00
15°
1012.5 hPa 6.2 mm
82%
12.9°
1
Windvlaag: -0.4 m/s
65% warningclass
14:00
16°
1012.4 hPa 6.1 mm
82%
12.6°
1
Windvlaag: -0.1 m/s
64% warningclass
15:00
16°
1012.6 hPa 6.2 mm
82%
11.0°
1
Windvlaag: -0.2 m/s
72%
16:00
16°
1012.7 hPa
82%
9.9°
1
Windvlaag: -0.2 m/s
73%
17:00
16°
1013.0 hPa 6.9 mm
82%
9.5°
1
Windvlaag: 0.4 m/s
68%
18:00
15°
1013.4 hPa 7.6 mm
82%
9.6°
1
Windvlaag: 0.9 m/s
82%
19:00
15°
1013.6 hPa 7.7 mm
82%
9.4°
2
Windvlaag: 1.9 m/s
74%
20:00
14°
1013.9 hPa
82%
8.9°
2
Windvlaag: 2.6 m/s
59%
21:00
14°
1014.2 hPa
76%
11.1°
1
Windvlaag: 2 m/s
22%
22:00
13°
1014.9 hPa
23%
11.6°
1
Windvlaag: 1.1 m/s
13%
23:00
13°
1015.2 hPa
14%
11.9°
1
Windvlaag: 0.7 m/s
17%
 06:13     20:59    Daglengte: 14:46 Morgen
00:00
12°
1015.1 hPa
14%
11.4°
1
Windvlaag: 1 m/s
9%
01:00
12°
1015.3 hPa
14%
10.7°
1
Windvlaag: 0.7 m/s
7%
02:00
11°
1015.4 hPa
14%
10.0°
1
Windvlaag: 0.8 m/s
8%
03:00
11°
1015.6 hPa
14%
9.5°
1
Windvlaag: 0.8 m/s
12%
04:00
11°
1015.9 hPa
14%
9.1°
1
Windvlaag: 1.1 m/s
13%
05:00
11°
1015.8 hPa
21%
9.0°
1
Windvlaag: 1 m/s
45%
06:00
11°
1016.2 hPa
23%
9.0°
2
Windvlaag: 1.3 m/s
23%
07:00
11°
1016.5 hPa
23%
9.2°
1
Windvlaag: 1.3 m/s
23%
08:00
12°
1016.5 hPa
18%
9.9°
1
Windvlaag: 0.9 m/s
51%
09:00
14°
1016.3 hPa
15%
11.1°
1
Windvlaag: 1.3 m/s
15%
10:00
15°
1016.3 hPa
16%
11.3°
1
Windvlaag: 2 m/s
26%
11:00
16°
1016.3 hPa
17%
11.6°
1
Windvlaag: 2.1 m/s
50%
12:00
17°
1016.0 hPa
20%
11.9°
1
Windvlaag: 1.5 m/s
37%
13:00
18°
1015.7 hPa
68%
10.9°
2
Windvlaag: -1 m/s
5%
14:00
18°
1015.5 hPa
69%
10.3°
2
Windvlaag: -2.6 m/s
12%
15:00
19°
1015.5 hPa
28%
10.8°
2
Windvlaag: -2.6 m/s
7%
16:00
19°
1015.4 hPa
66%
11.8°
2
Windvlaag: -1.9 m/s
11%
17:00
19°
1015.1 hPa
90%
10.7°
2
Windvlaag: -1.8 m/s
28%
18:00
19°
1015.0 hPa
90%
10.4°
2
Windvlaag: -1.6 m/s
32%
19:00
18°
1015.1 hPa
39%
10.6°
2
Windvlaag: 2.6 m/s
44%
20:00
17°
1015.3 hPa 16.6 mm
30%
13.5°
1
Windvlaag: 2.5 m/s
32%
21:00
16°
1015.6 hPa 16.5 mm
21%
12.7°
1
Windvlaag: 1.1 m/s
34%
22:00
15°
1016.2 hPa
21%
12.0°
1
Windvlaag: 0.6 m/s
43%
23:00
14°
1016.5 hPa
21%
10.6°
2
Windvlaag: 0.4 m/s
47%
 06:14     20:58    Daglengte: 14:44 Dinsdag 03 Aug
00:00
13°
1016.3 hPa
21%
10.2°
1
Windvlaag: 0.7 m/s
58%
01:00
13°
1016.0 hPa
21%
9.4°
2
Windvlaag: 0.1 m/s
49%
02:00
12°
1015.8 hPa
21%
8.6°
2
Windvlaag: 0.1 m/s
45%
03:00
12°
1015.5 hPa
21%
8.3°
2
Windvlaag: 1 m/s
33%
04:00
12°
1015.2 hPa
21%
7.6°
2
Windvlaag: 1.1 m/s
23%
05:00
12°
1014.8 hPa
21%
6.9°
2
Windvlaag: 0.8 m/s
46%
06:00
12°
1014.7 hPa
21%
6.4°
1
Windvlaag: 0.5 m/s
62%
07:00
13°
1014.7 hPa
21%
2.3°
1
Windvlaag: 0.4 m/s
69%
08:00
14°
1014.8 hPa
21%
5.1°
1
Windvlaag: 0.3 m/s
81%
09:00
16°
1014.6 hPa
21%
6.9°
1
Windvlaag: 0.6 m/s
83%
10:00
16°
1014.3 hPa
21%
8.4°
1
Windvlaag: -0.2 m/s
78%
11:00
18°
1014.4 hPa 16.5 mm
27%
9.8°
2
Windvlaag: -1.8 m/s
83%
12:00
19°
1014.0 hPa 16.7 mm
37%
12.2°
3
Windvlaag: -2.9 m/s
82%
13:00
18°
1014.1 hPa 17.3 mm
52%
11.3°
5
Windvlaag: -2.3 m/s
91%
14:00
18°
1014.4 hPa 10.2 mm
100%
8.5°
4
Windvlaag: -2.4 m/s
80%
15:00
18°
1014.7 hPa 17.2 mm
100%
8.7°
3
Windvlaag: 9.4 m/s
75%
16:00
18°
1014.7 hPa 17.5 mm
100%
9.3°
2
Windvlaag: 8.4 m/s
91% warningclass
17:00
17°
1014.7 hPa 17.9 mm
100%
10.7°
1
Windvlaag: 9.2 m/s
66% warningclass
18:00
17°
1014.6 hPa 17.1 mm
100%
10.7°
2
Windvlaag: 8.8 m/s
20%
19:00
17°
1014.6 hPa 16.6 mm
100%
11.8°
1
Windvlaag: 7.8 m/s
17%
20:00
17°
1014.8 hPa
99%
12.9°
1
Windvlaag: 7 m/s
12%
21:00
17°
1013.7 hPa 49.6 mm
100%
14.4°
2
Windvlaag: 5.7 m/s
80%
22:00
17°
1014.0 hPa 49.6 mm
100%
13.5°
1
Windvlaag: 4.6 m/s
86%
23:00
15°
1014.2 hPa 49.6 mm
100%
12.8°
0
Windvlaag: 0.5 m/s
95%
 06:15     20:56    Daglengte: 14:41 Woensdag 04 Aug
00:00
13°
1013.9 hPa 49.6 mm
100%
11.3°
2
Windvlaag: 1.5 m/s
96%
Temp/Neerslag /Baro Onweer/Dauwpunt
    Temp Baro Neerslag Dauwpunt Wind Bewolking  
 06:12     21:01    Daglengte: 14:49 Vandaag
02:00
14°
1010.7 hPa 7.7 mm 12.3°
2
86%
05:00
14°
1010.5 hPa 18.5 mm 12.4°
2
86%
08:00
13°
1011.8 hPa 20.6 mm 12.7°
1
81%
11:00
14°
1012.9 hPa 19.4 mm 12.4°
1
71%
14:00
16°
1012.4 hPa 18.5 mm 12.6°
1
64% warningclass
17:00
16°
1013.0 hPa 13.1 mm 9.5°
1
68%
20:00
14°
1013.9 hPa 15.3 mm 8.9°
2
59%
23:00
13°
1015.2 hPa   11.9°
1
17%
 06:13     20:59    Daglengte: 14:46 Morgen
02:00
11°
1015.4 hPa   10.0°
1
8%
05:00
11°
1015.8 hPa   9.0°
1
45%
08:00
12°
1016.5 hPa   9.9°
1
51%
11:00
16°
1016.3 hPa   11.6°
1
50%
14:00
18°
1015.5 hPa   10.3°
2
12%
17:00
19°
1015.1 hPa   10.7°
2
28%
20:00
17°
1015.3 hPa 16.6 mm 13.5°
1
32%
23:00
14°
1016.5 hPa 16.5 mm 10.6°
2
47%
 06:14     20:58    Daglengte: 14:44 Dinsdag 03 Aug
02:00
12°
1015.8 hPa   8.6°
2
45%
05:00
12°
1014.8 hPa   6.9°
2
46%
08:00
14°
1014.8 hPa   5.1°
1
81%
11:00
18°
1014.4 hPa 16.5 mm 9.8°
2
83%
14:00
18°
1014.4 hPa 44.2 mm 8.5°
4
80%
17:00
17°
1014.7 hPa 52.6 mm 10.7°
1
66% warningclass
20:00
17°
1014.8 hPa 33.7 mm 12.9°
1
12%
23:00
15°
1014.2 hPa 148.7 mm 12.8°
0
95%
 06:15     20:56    Daglengte: 14:41 Woensdag 04 Aug
02:00
13°
1013.1 hPa 148.7 mm 11.2°
2
97%
05:00
14°
1013.9 hPa 47.7 mm 11.4°
1
1%
08:00
14°
1014.3 hPa 50.0 mm 12.9°
2
1%
11:00
15°
1014.6 hPa 52.5 mm 14.3°
1
1%
14:00
15°
1015.7 hPa 54.0 mm 15.0°
2
1%
17:00
15°
1016.8 hPa 55.1 mm 13.9°
2
1%
20:00
13°
1018.1 hPa 56.9 mm 13.3°
0
1%
23:00
13°
1018.9 hPa 57.5 mm 11.9°
0
1%
 06:17     20:55    Daglengte: 14:38 Donderdag 05 Aug
02:00
11°
1018.9 hPa 57.7 mm 10.5°
1
1%
05:00
11°
1017.8 hPa 57.7 mm 10.1°
1
0%
08:00
13°
1016.6 hPa 57.7 mm 11.4°
1
0%
11:00
17°
1014.6 hPa 57.8 mm 11.3°
1
1%
14:00
18°
1013.7 hPa 57.8 mm 11.4°
2
1%
17:00
17°
1012.9 hPa 58.0 mm 13.1°
1
1%
20:00
14°
1012.6 hPa 58.6 mm 13.6°
1
1%
23:00
13°
1012.6 hPa 58.6 mm 11.8°
2
1%
 06:18     20:53    Daglengte: 14:35 Vrijdag 06 Aug
02:00
13°
1012.1 hPa 58.9 mm 11.8°
2
1%
05:00
12°
1012.1 hPa 59.0 mm 10.3°
1
1%
08:00
13°
1012.5 hPa 59.2 mm 11.9°
1
1%
11:00
16°
1012.6 hPa 59.6 mm 13.8°
2
1%
14:00
19°
1012.0 hPa 60.1 mm 13.4°
3
1%
17:00
20°
1012.0 hPa 60.1 mm 12.3°
3
1%
20:00
16°
1013.6 hPa 60.2 mm 12.6°
1
1%
23:00
13°
1015.8 hPa 60.2 mm 9.8°
1
1%
 06:19     20:52    Daglengte: 14:33 Zaterdag 07 Aug
02:00
12°
1015.7 hPa 60.2 mm 9.7°
1
1%
05:00
11°
1015.2 hPa 60.2 mm 9.5°
2
0%
08:00
14°
1014.0 hPa 60.2 mm 10.0°
1
0%
11:00
21°
1012.3 hPa 60.2 mm 11.2°
2
1%
14:00
24°
1011.0 hPa 60.2 mm 12.7°
2
1%
17:00
25°
1011.1 hPa 60.2 mm 14.1°
2
1%
20:00
21°
1011.9 hPa 60.2 mm 17.0°
0
0%
23:00
17°
1013.3 hPa   13.6°
2
0%
 06:20     20:50    Daglengte: 14:30 Zondag 08 Aug
02:00
17°
1013.5 hPa 120.4 mm 11.6°
2
0%
08:00
19°
1014.7 hPa 120.4 mm 13.9°
1
0%
14:00
25°
1015.9 hPa 120.4 mm 16.9°
3
0%
20:00
18°
1019.7 hPa 124.1 mm 17.9°
1
1%
 06:22     20:49    Daglengte: 14:27 Maandag 09 Aug
02:00
15°
1023.4 hPa 132.4 mm 14.7°
0
1%
08:00
15°
1024.2 hPa 134.3 mm 14.6°
0
1%
14:00
21°
1024.2 hPa 134.8 mm 12.9°
2
1%
20:00
18°
1024.9 hPa 135.1 mm 13.3°
1
1%
 06:23     20:47    Daglengte: 14:24 Dinsdag 10 Aug
02:00
12°
1027.2 hPa 135.1 mm 10.1°
2
0%
08:00
14°
1025.8 hPa 135.1 mm 9.8°
0
0%
14:00
23°
1023.1 hPa 135.1 mm 11.0°
2
0%
20:00
20°
1020.6 hPa 1.4 mm 17.1°
1
51%
 06:24     20:46    Daglengte: 14:22 Woensdag 11 Aug
02:00
15°
1021.8 hPa 0.6 mm 13.5°
1
38%
08:00
16°
1021.1 hPa 1.1 mm 14.0°
1
42%
14:00
24°
1019.2 hPa 0.8 mm 15.0°
2
44%
20:00
20°
1019.5 hPa 1.8 mm 16.9°
1
54%
 06:25     20:44    Daglengte: 14:19 Donderdag 12 Aug
02:00
15°
1020.7 hPa 0.9 mm 13.6°
1
49%
08:00
16°
1020.5 hPa 0.8 mm 14.1°
1
48%
14:00
24°
1019.0 hPa 0.8 mm 15.8°
2
41%
20:00
20°
1019.1 hPa 2.2 mm 17.2°
1
50%
 06:27     20:42    Daglengte: 14:15 Vrijdag 13 Aug
02:00
15°
1020.7 hPa 1.7 mm 13.4°
1
38%
08:00
16°
1020.8 hPa 0.7 mm 14.3°
1
37%
14:00
24°
1019.5 hPa 0.8 mm 15.7°
2
43%
20:00
20°
1019.6 hPa 1.2 mm 17.4°
1
45%
 06:28     20:41    Daglengte: 14:13 Zaterdag 14 Aug
02:00
15°
1021.1 hPa 0.4 mm 13.9°
1
42%
08:00
17°
1020.6 hPa 0.3 mm 14.7°
1
48%
14:00
25°
1018.5 hPa 0.3 mm 15.9°
2
42%
20:00
20°
1018.5 hPa 0.4 mm 17.6°
1
47%
 06:29     20:39    Daglengte: 14:10 Zondag 15 Aug
02:00
15°
1019.8 hPa 0.3 mm 14.1°
1
39%
08:00
17°
1019.3 hPa 0.6 mm 14.6°
1
39%
14:00
25°
1017.5 hPa 1.0 mm 16.1°
2
35%
20:00
20°
1017.8 hPa 1.6 mm 17.4°
1
45%
  CAPE Lifted Index Hail Supercell Tornado SRH 3km CL BTM PRES CL TOP PRES Swiss DWD icon SMHI TS
 06:12     21:01    Daglengte: 14:49 Vandaag
01:00 1 J/kg -1.3 K 0 % 0 % 0 % 0 m²/s² 0 0 -1 80
02:00 0 J/kg 1.0 K 0 % 0 % 0 % 0 m²/s² 0 0 1.09 80
03:00 21 J/kg 1.6 K 0 % 0 % 0 % 0 m²/s² 0 0 1.87 63
04:00 49 J/kg 1.5 K 0 % 0 % 0 % 0 m²/s² 0 0 1.62 63
05:00 81 J/kg 2.1 K 0 % 0 % 0 % 0 m²/s² 0 0 2.1 63
06:00 74 J/kg 2.1 K 0 % 0 % 0 % 0 m²/s² 0 0 2.13 63
07:00 90 J/kg 2.0 K 0 % 0 % 0 % 0 m²/s² 0 0 2.09 63
08:00 109 J/kg 1.6 K 0 % 0 % 0 % 0 m²/s² 0 0 1.72 61
09:00 137 J/kg 0.7 K 0 % 0 % 0 % 0 m²/s² 0 0 0.79 61
10:00 147 J/kg 0.3 K 0 % 0 % 0 % 0 m²/s² 0 0 0.39 61
11:00 207 J/kg -0.4 K 0 % 0 % 0 % 0 m²/s² 0 0 -0.31 61
12:00 384 J/kg -1.4 K 0 % 0 % 0 % 0 m²/s² 0 0 -1.19 61
13:00 582 J/kg -2.6 K 0 % 0 % 0 % 0 m²/s² 0 0 -2.36 61
14:00 699 J/kg -2.5 K 0 % 0 % 0 % 0 m²/s² 0 0 -2.11 61
15:00 702 J/kg -2.5 K 0 % 0 % 0 % 0 m²/s² 0 0 -1.75 61
16:00 697 J/kg -3.1 K 0 % 0 % 0 % 0 m²/s² 0 0 -2.17 3
17:00 94 J/kg -1.9 K 0 % 0 % 0 % 0 m²/s² 0 0 -1.33 61
18:00 93 J/kg -0.3 K 0 % 0 % 0 % 0 m²/s² 0 0 -0.27 61
19:00 147 J/kg -1.9 K 0 % 0 % 0 % 0 m²/s² 0 0 -0.55 61
20:00 146 J/kg -2.2 K 0 % 0 % 0 % 0 m²/s² 0 0 -0.52 61
21:00 24 J/kg -2.0 K 0 % 0 % 0 % 0 m²/s² 0 0 -1.91 2
22:00 73 J/kg -1.3 K 0 % 0 % 0 % 0 m²/s² 0 0 -1.06 2
23:00 49 J/kg -0.9 K 0 % 0 % 0 % 0 m²/s² 0 0 -0.69 2
 06:13     20:59    Daglengte: 14:46 Morgen
00:00 0 J/kg 0.0 K 0 % 0 % 0 % 0 m²/s² 0 0 0.75 2
01:00 0 J/kg 0.7 K 0 % 0 % 0 % 0 m²/s² 0 0 2.02 2
02:00 0 J/kg 0.7 K 0 % 0 % 0 % 0 m²/s² 0 0 2.14 1
03:00 0 J/kg 0.4 K 0 % 0 % 0 % 0 m²/s² 0 0 1.9 2
04:00 0 J/kg 0.9 K 0 % 0 % 0 % 0 m²/s² 0 0 2.34 2
05:00 0 J/kg 1.1 K 0 % 0 % 0 % 0 m²/s² 0 0 2.36 2
06:00 0 J/kg 1.1 K 0 % 0 % 0 % 0 m²/s² 0 0 2.27 2
07:00 0 J/kg 1.4 K 0 % 0 % 0 % 0 m²/s² 0 0 2.66 2
08:00 6 J/kg 1.2 K 0 % 0 % 0 % 0 m²/s² 0 0 2.64 3
09:00 104 J/kg 0.7 K 0 % 0 % 0 % 0 m²/s² 0 0 2.53 2
10:00 186 J/kg 0.2 K 0 % 0 % 0 % 0 m²/s² 0 0 2.3 2
11:00 219 J/kg -0.2 K 0 % 0 % 0 % 0 m²/s² 0 0 2.02 3
12:00 202 J/kg -0.1 K 0 % 0 % 0 % 0 m²/s² 0 0 2.33 3
13:00 174 J/kg 0.0 K 0 % 0 % 0 % 0 m²/s² 0 0 2.67 2
14:00 270 J/kg -0.6 K 0 % 0 % 0 % 0 m²/s² 0 0 2.16 2
15:00 314 J/kg -1.0 K 0 % 0 % 0 % 0 m²/s² 0 0 1.82 2
16:00 371 J/kg -1.3 K 0 % 0 % 0 % 0 m²/s² 0 0 1.52 1
17:00 354 J/kg -1.3 K 0 % 0 % 0 % 0 m²/s² 0 0 1.31 1
18:00 316 J/kg -1.1 K 0 % 0 % 0 % 0 m²/s² 0 0 1.3 2
19:00 359 J/kg -1.3 K 0 % 0 % 0 % 0 m²/s² 0 0 1.64 3
20:00 525 J/kg -1.9 K 0 % 0 % 0 % 0 m²/s² 0 0 0.8 3
21:00 511 J/kg -2.0 K 0 % 0 % 0 % 0 m²/s² 0 0 0.7 3
22:00 339 J/kg -1.6 K 0 % 0 % 0 % 0 m²/s² 0 0 0.53 3
23:00 139 J/kg -1.4 K 0 % 0 % 0 % 0 m²/s² 0 0 0.91 3
 06:14     20:58    Daglengte: 14:44 Dinsdag 03 Aug
00:00 41 J/kg -1.4 K 0 % 0 % 0 % 0 m²/s² 0 0 1.39 2
01:00 0 J/kg -1.3 K 0 % 0 % 0 % 0 m²/s² 0 0 1.73 0
02:00 0 J/kg -1.1 K 0 % 0 % 0 % 0 m²/s² 0 0 1.93 0
03:00 0 J/kg -1.0 K 0 % 0 % 0 % 0 m²/s² 0 0 1.94 0
04:00 0 J/kg -0.6 K 0 % 0 % 0 % 0 m²/s² 0 0 2.04 0
05:00 0 J/kg -0.3 K 0 % 0 % 0 % 0 m²/s² 0 0 1.77 3
06:00 0 J/kg -0.2 K 0 % 0 % 0 % 0 m²/s² 0 0 1.48 3
07:00 0 J/kg 0.5 K 0 % 0 % 0 % 0 m²/s² 0 0 1.94 3
08:00 0 J/kg 0.0 K 0 % 0 % 0 % 0 m²/s² 0 0 1.17 3
09:00 14 J/kg -0.8 K 0 % 0 % 0 % 0 m²/s² 0 0 0.82 3
10:00 266 J/kg -1.6 K 0 % 0 % 0 % 0 m²/s² 0 0 0.32 3
11:00 514 J/kg -2.8 K 0 % 0 % 0 % 0 m²/s² 0 0 -0.55 3
12:00 442 J/kg -2.0 K 0 % 0 % 0 % 0 m²/s² 0 0 -0.62 3
13:00 352 J/kg -1.3 K 0 % 0 % 0 % 0 m²/s² 0 0 -0.01 3
14:00 79 J/kg 0.9 K 0 % 0 % 0 % 0 m²/s² 0 0 1.77 3
15:00 99 J/kg 0.3 K 0 % 0 % 0 % 0 m²/s² 0 0 1.29 80
16:00 167 J/kg 0.3 K 0 % 0 % 0 % 0 m²/s² 0 0 1.23 95
17:00 308 J/kg -0.7 K 0 % 0 % 0 % 0 m²/s² 0 0 1.7 95
18:00 273 J/kg -0.2 K 0 % 0 % 0 % 0 m²/s² 0 0 2.74 80
19:00 270 J/kg -0.1 K 0 % 0 % 0 % 0 m²/s² 0 0 2.84 2
20:00 232 J/kg 0.3 K 0 % 0 % 0 % 0 m²/s² 0 0 3.09 2
21:00 212 J/kg 0.8 K 0 % 0 % 0 % 0 m²/s² 0 0 2.81
22:00 111 J/kg 2.4 K 0 % 0 % 0 % 0 m²/s² 0 0 4.29
23:00 42 J/kg 3.5 K 0 % 0 % 0 % 0 m²/s² 0 0 5.03
 06:15     20:56    Daglengte: 14:41 Woensdag 04 Aug
00:00 14 J/kg 3.9 K 0 % 0 % 0 % 0 m²/s² 0 0 5.04
Temp Baro Wind Neerslag
</
  EWN Forecast EWN WRFDA DWD ICON FMI HIRLAM MET Norway GFS
 06:12     21:01    Daglengte: 14:49 Vandaag
02:00 14.3° 1010.7 hPa 1.9 m/s 7.7 mm 13.5° 1010.0 hPa 4.7 m/s 25.6 mm 14.2° 1010.8 hPa 2.8 m/s 4.2 mm 15.2° 1010.5 hPa 1.5 m/s 0.0 mm 14.6° 1010.6 hPa 1.6 m/s
05:00 13.8° 1010.5 hPa 2.2 m/s 18.5 mm 13.4° 1009.0 hPa 1.7 m/s 62.3 mm 13.5° 1010.8 hPa 1.8 m/s 11.4 mm 14.5° 1010.1 hPa 2.9 m/s 0.0 mm 13.1° 1011.8 hPa 1.0 m/s
08:00 13.2° 1011.8 hPa 1.4 m/s 20.6 mm 13.4° 1009.3 hPa 1.5 m/s 73.5 mm 13.0° 1012.2 hPa 1.2 m/s 8.7 mm 14.0° 1011.6 hPa 1.8 m/s 0.0 mm 13.5° 1011.5 hPa 0.3 m/s
11:00 13.9° 1012.9 hPa 0.9 m/s 19.4 mm 14.0° 1011.2 hPa 1.6 m/s 82.8 mm 13.5° 1013.6 hPa 0.7 m/s 4.3 mm 15.3° 1012.2 hPa 0.8 m/s 0.0 mm 13.8° 1012.3 hPa 1.2 m/s
14:00 16.1° 1012.4 hPa 1.4 m/s 18.5 mm 17.0° 1010.5 hPa 3.2 m/s 88.3 mm 14.2° 1013.7 hPa 0.6 m/s 1.5 mm 17.1° 1011.8 hPa 1.3 m/s 0.0 mm 13.5° 1013.2 hPa 1.6 m/s
17:00 15.6° 1013.0 hPa 1.1 m/s 13.1 mm 13.9° 1011.2 hPa 3.7 m/s 92.5 mm 14.3° 1014.2 hPa 1.1 m/s 0.5 mm 19.4° 1010.9 hPa 0.4 m/s 0.0 mm 13.2° 1014.6 hPa 0.6 m/s
20:00 14.3° 1013.9 hPa 1.7 m/s 15.3 mm 15.1° 1011.8 hPa 2.2 m/s 107.6 mm 13.2° 1014.9 hPa 0.9 m/s 1.3 mm 17.8° 1012.1 hPa 2.4 m/s 0.0 mm 14.1° 1014.5 hPa 0.6 m/s
23:00 12.8° 1015.2 hPa 1.1 m/s 0.0 mm 13.2° 1014.4 hPa 2.5 m/s 124.0 mm 11.9° 1015.8 hPa 1.0 m/s 0.0 mm 14.0° 1014.9 hPa 0.3 m/s 0.0 mm 10.8° 1016.5 hPa 1.7 m/s
 06:13     20:59    Daglengte: 14:46 Morgen
02:00 11.4° 1015.4 hPa 1.3 m/s 0.0 mm 9.9° 1014.0 hPa 2.8 m/s 147.8 mm 11.1° 1016.2 hPa 0.9 m/s 0.0 mm 12.0° 1015.5 hPa 1.2 m/s 0.0 mm 10.2° 1016.6 hPa 1.8 m/s
05:00 10.9° 1015.8 hPa 1.4 m/s 0.0 mm 9.3° 1014.3 hPa 2.7 m/s 147.8 mm 10.7° 1016.1 hPa 0.9 m/s 0.0 mm 11.5° 1016.5 hPa 1.7 m/s 0.0 mm 9.9° 1016.9 hPa 1.6 m/s
08:00 12.5° 1016.5 hPa 1.1 m/s 0.0 mm 13.9° 1015.9 hPa 1.9 m/s 147.8 mm 12.3° 1016.8 hPa 0.4 m/s 0.0 mm 12.9° 1016.6 hPa 1.2 m/s 0.0 mm 13.1° 1017.1 hPa 0.8 m/s
11:00 15.8° 1016.3 hPa 1.2 m/s 0.0 mm 17.5° 1016.1 hPa 2.3 m/s 147.8 mm 15.6° 1017.0 hPa 0.9 m/s 0.0 mm 17.0° 1015.8 hPa 1.9 m/s 0.0 mm 17.6° 1016.5 hPa 0.6 m/s
14:00 18.4° 1015.5 hPa 2.3 m/s 0.0 mm 20.0° 1015.2 hPa 3.9 m/s 147.8 mm 17.9° 1016.0 hPa 0.7 m/s 0.1 mm 20.2° 1015.4 hPa 2.5 m/s 0.0 mm 19.6° 1015.3 hPa 3.0 m/s
17:00 19.4° 1015.1 hPa 1.9 m/s 0.0 mm 20.6° 1014.7 hPa 3.6 m/s 147.8 mm 19.3° 1015.5 hPa 1.6 m/s 0.0 mm 18.3° 1016.3 hPa 1.5 m/s
20:00 17.5° 1015.3 hPa 0.9 m/s 16.6 mm 18.8° 1014.9 hPa 1.3 m/s 147.8 mm 17.3° 1015.5 hPa 0.9 m/s 0.0 mm 16.1° 1016.9 hPa 0.4 m/s
23:00 13.8° 1016.5 hPa 1.5 m/s 16.5 mm 13.7° 1016.0 hPa 2.6 m/s 147.8 mm 13.6° 1016.7 hPa 1.5 m/s 0.0 mm 12.8° 1018.7 hPa 1.8 m/s
 06:14     20:58    Daglengte: 14:44 Dinsdag 03 Aug
02:00 12.3° 1015.8 hPa 1.6 m/s 0.0 mm 12.3° 1015.6 hPa 3.0 m/s 147.8 mm 12.1° 1016.7 hPa 1.5 m/s 0.0 mm 11.9° 1017.9 hPa 2.1 m/s
05:00 12.2° 1014.8 hPa 1.6 m/s 0.0 mm 12.2° 1014.4 hPa 2.8 m/s 147.8 mm 11.6° 1015.7 hPa 1.5 m/s 0.0 mm 11.0° 1017.3 hPa 2.4 m/s
08:00 13.9° 1014.8 hPa 1.3 m/s 0.0 mm 17.1° 1014.3 hPa 1.5 m/s 147.8 mm 13.6° 1015.4 hPa 1.0 m/s 0.0 mm 14.6° 1016.2 hPa 1.3 m/s
11:00 17.6° 1014.4 hPa 2.1 m/s 16.5 mm 20.8° 1013.2 hPa 4.4 m/s 147.8 mm 17.1° 1015.3 hPa 0.3 m/s 0.0 mm 21.6° 1014.2 hPa 1.5 m/s
14:00 17.6° 1014.4 hPa 4.0 m/s 44.2 mm 20.1° 1014.1 hPa 7.7 m/s 148.3 mm 17.5° 1014.5 hPa 3.0 m/s 0.7 mm 15.6° 1016.5 hPa 2.5 m/s
17:00 17.2° 1014.7 hPa 1.4 m/s 52.6 mm 20.6° 1013.1 hPa 6.1 m/s 148.5 mm 16.4° 1015.1 hPa 0.2 m/s 4.7 mm 17.6° 1015.9 hPa 2.1 m/s
20:00 16.9° 1014.8 hPa 0.8 m/s 33.7 mm 18.3° 1013.1 hPa 2.9 m/s 148.7 mm 16.6° 1015.2 hPa 0.2 m/s 0.9 mm 16.8° 1015.3 hPa 1.1 m/s
23:00 14.7° 1014.2 hPa 0.4 m/s 148.7 mm 14.7° 1014.2 hPa 0.4 m/s 148.7 mm 15.0° 1015.7 hPa 0.6 m/s
 06:15     20:56    Daglengte: 14:41 Woensdag 04 Aug
02:00 13.0° 1013.1 hPa 2.3 m/s 148.7 mm 13.0° 1013.1 hPa 2.3 m/s 148.7 mm 14.5° 1014.4 hPa 0.9 m/s
05:00 13.7° 1013.9 hPa 1.1 m/s 47.7 mm 13.7° 1013.9 hPa 1.1 m/s 47.7 mm
08:00 13.9° 1014.3 hPa 1.6 m/s 50.0 mm 13.9° 1014.3 hPa 1.6 m/s 50.0 mm
11:00 15.3° 1014.6 hPa 1.0 m/s 52.5 mm 15.3° 1014.6 hPa 1.0 m/s 52.5 mm
14:00 15.4° 1015.7 hPa 1.5 m/s 54.0 mm 15.4° 1015.7 hPa 1.5 m/s 54.0 mm
17:00 14.6° 1016.8 hPa 1.5 m/s 55.1 mm 14.6° 1016.8 hPa 1.5 m/s 55.1 mm
20:00 13.5° 1018.1 hPa 0.1 m/s 56.9 mm 13.5° 1018.1 hPa 0.1 m/s 56.9 mm
23:00 12.6° 1018.9 hPa 0.5 m/s 57.5 mm 12.6° 1018.9 hPa 0.5 m/s 57.5 mm
 06:17     20:55    Daglengte: 14:38 Donderdag 05 Aug
02:00 10.9° 1018.9 hPa 0.7 m/s 57.7 mm 10.9° 1018.9 hPa 0.7 m/s 57.7 mm
05:00 10.8° 1017.8 hPa 1.1 m/s 57.7 mm 10.8° 1017.8 hPa 1.1 m/s 57.7 mm
08:00 12.7° 1016.6 hPa 0.6 m/s 57.7 mm 12.7° 1016.6 hPa 0.6 m/s 57.7 mm
11:00 17.4° 1014.6 hPa 1.5 m/s 57.8 mm 17.4° 1014.6 hPa 1.5 m/s 57.8 mm
14:00 17.9° 1013.7 hPa 1.8 m/s 57.8 mm 17.9° 1013.7 hPa 1.8 m/s 57.8 mm
17:00 16.6° 1012.9 hPa 1.3 m/s 58.0 mm 16.6° 1012.9 hPa 1.3 m/s 58.0 mm
20:00 14.4° 1012.6 hPa 0.9 m/s 58.6 mm 14.4° 1012.6 hPa 0.9 m/s 58.6 mm
23:00 12.6° 1012.6 hPa 2.1 m/s 58.6 mm 12.6° 1012.6 hPa 2.1 m/s 58.6 mm
 06:18     20:53    Daglengte: 14:35 Vrijdag 06 Aug
02:00 12.7° 1012.1 hPa 1.5 m/s 58.9 mm 12.7° 1012.1 hPa 1.5 m/s 58.9 mm
05:00 11.6° 1012.1 hPa 1.5 m/s 59.0 mm 11.6° 1012.1 hPa 1.5 m/s 59.0 mm
08:00 12.9° 1012.5 hPa 0.8 m/s 59.2 mm 12.9° 1012.5 hPa 0.8 m/s 59.2 mm
11:00 16.0° 1012.6 hPa 1.7 m/s 59.6 mm 16.0° 1012.6 hPa 1.7 m/s 59.6 mm
14:00 19.3° 1012.0 hPa 2.6 m/s 60.1 mm 19.3° 1012.0 hPa 2.6 m/s 60.1 mm
17:00 19.7° 1012.0 hPa 2.9 m/s 60.1 mm 19.7° 1012.0 hPa 2.9 m/s 60.1 mm
20:00 16.4° 1013.6 hPa 1.1 m/s 60.2 mm 16.4° 1013.6 hPa 1.1 m/s 60.2 mm
23:00 13.0° 1015.8 hPa 1.0 m/s 60.2 mm 13.0° 1015.8 hPa 1.0 m/s 60.2 mm
 06:19     20:52    Daglengte: 14:33 Zaterdag 07 Aug
02:00 11.9° 1015.7 hPa 1.5 m/s 60.2 mm 11.9° 1015.7 hPa 1.5 m/s 60.2 mm
05:00 10.6° 1015.2 hPa 1.7 m/s 60.2 mm 10.6° 1015.2 hPa 1.7 m/s 60.2 mm
08:00 14.1° 1014.0 hPa 0.9 m/s 60.2 mm 14.1° 1014.0 hPa 0.9 m/s 60.2 mm
11:00 20.5° 1012.3 hPa 1.5 m/s 60.2 mm 20.5° 1012.3 hPa 1.5 m/s 60.2 mm
14:00 24.4° 1011.0 hPa 2.2 m/s 60.2 mm 24.4° 1011.0 hPa 2.2 m/s 60.2 mm
17:00 24.6° 1011.1 hPa 1.7 m/s 60.2 mm 24.6° 1011.1 hPa 1.7 m/s 60.2 mm
20:00 20.5° 1011.9 hPa 0.3 m/s 60.2 mm 20.5° 1011.9 hPa 0.3 m/s 60.2 mm
23:00 17.3° 1013.3 hPa 2.3 m/s 60.2 mm 17.3° 1013.3 hPa 2.3 m/s 60.2 mm
 06:20     20:50    Daglengte: 14:30 Zondag 08 Aug
02:00 16.5° 1013.5 hPa 2.1 m/s 60.2 mm 16.5° 1013.5 hPa 2.1 m/s 60.2 mm
08:00 18.5° 1014.7 hPa 1.0 m/s 60.2 mm 18.5° 1014.7 hPa 1.0 m/s 60.2 mm
14:00 25.1° 1015.9 hPa 2.7 m/s 60.2 mm 25.1° 1015.9 hPa 2.7 m/s 60.2 mm
20:00 17.9° 1019.7 hPa 1.4 m/s 63.0 mm 17.9° 1019.7 hPa 1.4 m/s 63.0 mm
 06:22     20:49    Daglengte: 14:27 Maandag 09 Aug
02:00 15.2° 1023.4 hPa 0.3 m/s 66.8 mm 15.2° 1023.4 hPa 0.3 m/s 66.8 mm
08:00 15.4° 1024.2 hPa 0.5 m/s 67.2 mm 15.4° 1024.2 hPa 0.5 m/s 67.2 mm
14:00 20.6° 1024.2 hPa 1.6 m/s 67.5 mm 20.6° 1024.2 hPa 1.6 m/s 67.5 mm
20:00 17.5° 1024.9 hPa 0.7 m/s 67.6 mm 17.5° 1024.9 hPa 0.7 m/s 67.6 mm
 06:23     20:47    Daglengte: 14:24 Dinsdag 10 Aug
02:00 11.8° 1027.2 hPa 1.5 m/s 67.6 mm 11.8° 1027.2 hPa 1.5 m/s 67.6 mm
08:00 14.4° 1025.8 hPa 0.5 m/s 67.6 mm 14.4° 1025.8 hPa 0.5 m/s 67.6 mm
14:00 22.9° 1023.1 hPa 2.3 m/s 67.6 mm 22.9° 1023.1 hPa 2.3 m/s 67.6 mm
20:00 19.8° 1020.6 hPa 1.1 m/s 1.4 mm
 06:24     20:46    Daglengte: 14:22 Woensdag 11 Aug
02:00 14.8° 1021.8 hPa 0.8 m/s 0.6 mm
08:00 16.3° 1021.1 hPa 0.7 m/s 1.1 mm
14:00 23.7° 1019.2 hPa 2.1 m/s 0.8 mm
20:00 19.5° 1019.5 hPa 1.3 m/s 1.8 mm
 06:25     20:44    Daglengte: 14:19 Donderdag 12 Aug
02:00 14.9° 1020.7 hPa 0.8 m/s 0.9 mm
08:00 16.3° 1020.5 hPa 0.6 m/s 0.8 mm
14:00 23.7° 1019.0 hPa 1.7 m/s 0.8 mm
20:00 19.8° 1019.1 hPa 0.9 m/s 2.2 mm
 06:27     20:42    Daglengte: 14:15 Vrijdag 13 Aug
02:00 14.9° 1020.7 hPa 1.1 m/s 1.7 mm